Regional Weather Roundup
Issued by NWS

Home | Current Version | Previous Version | Text Only | Print | Product List | Glossary Off
Versions: 1 2 3 4 5 6 7 8 9 10 11 12 13 14 15 16 17 18 19 20 21 22 23 24 25 26 27 28 29 30 31 32 33 34 35 36 37 38 39 40 41 42 43 44 45 46 47 48 49 50

000
ASUS43 KMKX 281311
RWRWI

WISCONSIN REGIONAL WEATHER ROUNDUP
NATIONAL WEATHER SERVICE MILWAUKEE/SULLIVAN WI
800 AM CDT TUE JUL 28 2015

NOTE: "FAIR" INDICATES FEW OR NO CLOUDS BELOW 12,000 FEET WITH NO
SIGNIFICANT WEATHER AND/OR OBSTRUCTIONS TO VISIBILITY.

WIZ001-002-006>008-014>016-023>028-281400-
NORTHWEST WISCONSIN

CITY           SKY/WX    TMP DP  RH WIND       PRES   REMARKS
SUPERIOR ARPT  CLOUDY    71  68  90 CALM      29.85R
ASHLAND        CLOUDY    71  66  84 SE3       29.90R
HAYWARD        CLOUDY    71  65  81 S10       29.91S
SIREN          RAIN      74  68  83 S16G22    29.88S
CUMBERLAND     CLOUDY    70  66  88 S9        29.92R THUNDER
RICE LAKE      CLOUDY    70  65  84 SE7       29.93R
CHETEK         CLOUDY    69  66  89 SE6       29.92R
LADYSMITH      CLOUDY    71  64  79 S7        29.96R
EAU CLAIRE     CLOUDY    73  65  75 S10       29.90R
MENOMONIE      CLOUDY    71  68  91 E7        29.88S
NEW RICHMOND   HVY RAIN  72  71  98 SW10      29.91R
OSCEOLA        RAIN      72  72 100 S13       29.91S
$$

WIZ003>005-009-010-017-018-281400-
NORTH CENTRAL WISCONSIN

CITY           SKY/WX    TMP DP  RH WIND       PRES   REMARKS
MANITOWISH WTR PTSUNNY   69  64  81 S9        29.98S
ARBOR VITAE    PTSUNNY   72  64  74 S8        29.99S
WOODRUFF       PTSUNNY   72  64  74 S8        29.99S
RHINELANDER    PTSUNNY   69  60  73 S8        30.01R
EAGLE RIVER    PTSUNNY   69  59  70 S5        30.01R
LAND O LAKES   PTSUNNY   71  61  70 S10       30.01S
PHILLIPS       CLOUDY    70  64  80 S9G16     29.96S
TOMAHAWK       PTSUNNY   68  62  79 S3        30.00R
MEDFORD        PTSUNNY   68  63  85 SE8       29.97F
MERRILL        NOT AVBL
$$

WIZ029-030-035-036-043>047-281400-
CENTRAL WISCONSIN

CITY           SKY/WX    TMP DP  RH WIND       PRES   REMARKS
WAUSAU         MOSUNNY   71  62  73 S9        29.98R
MOSINEE        SUNNY     68  64  88 S7        30.00R
MARSHFIELD     MOSUNNY   72  62  71 S10       29.97S
STEVENS POINT  SUNNY     72  60  67 S8        29.99S
WAUPACA        SUNNY     71  64  78 SE3       30.00S
WAUTOMA        SUNNY     72  64  75 S5        29.99S
WISC RAPIDS    MOSUNNY   74  61  63 S8        29.97F
CAMP DOUGLAS   PTSUNNY   72  72 100 SE8       29.94F
$$

WIZ011>013-019>022-031-037>040-048>050-281400-
NORTHEAST WISCONSIN

CITY           SKY/WX    TMP DP  RH WIND       PRES   REMARKS
ANTIGO         MOSUNNY   67  63  89 S7        30.03R
SHAWANO        SUNNY     73  63  69 CALM      30.01R
OCONTO         SUNNY     74  67  76 SE3       29.99S
STURGEON BAY   SUNNY     73  61  64 S7        30.03F
GREEN BAY      SUNNY     74  65  73 CALM      29.99F
MANITOWOC      SUNNY     72  67  84 MISG      30.01F
APPLETON       MOSUNNY   75  63  64 S8        29.99F
CLINTONVILLE   SUNNY     68  63  83 CALM      30.00S
OSHKOSH        SUNNY     72  64  76 S7        29.99S
$$

WIZ032>034-041-042-053>061-281400-
SOUTHWEST WISCONSIN

CITY           SKY/WX    TMP DP  RH WIND       PRES   REMARKS
LA CROSSE      CLOUDY    74  65  73 S12       29.91F
SPARTA         CLOUDY    74  63  68 S5        29.93F
VIROQUA        CLOUDY    69  65  85 SE8       29.95F
BOSCOBEL       PTSUNNY   75  65  70 VRB3      29.93F
PRAIRIE DU CHI LGT RAIN  72  65  80 E3        29.94R
PLATTEVILLE    MOSUNNY   72  67  83 SE10      29.95F
$$

WIZ056-057-062-063-064-067-068-281400-
SOUTH CENTRAL WISCONSIN

CITY           SKY/WX    TMP DP  RH WIND       PRES   REMARKS
REEDSBURG      MOSUNNY   72  64  76 S5        29.97F
BARABOO/DELLS  MOSUNNY   74  61  63 S7        29.97F
LONE ROCK      MOSUNNY   71  65  81 E5        29.95F
MINERAL POINT  MOSUNNY   72  64  78 SE8       29.97F
MADISON        PTSUNNY   74  63  68 S8        29.98F
MIDDLETON      SUNNY     75  64  67 NE7       29.98F
WATERTOWN      SUNNY     72  70  94 SE3       30.00R
MONROE         SUNNY     72  64  78 SE8       29.98F
JANESVILLE     SUNNY     73  64  73 S7        29.98F
$$

WIZ051-052-058>065-066-070>072-281400-
SOUTHEAST WISCONSIN

CITY           SKY/WX    TMP DP  RH WIND       PRES   REMARKS
MILWAUKEE      MOSUNNY   75  66  73 S6        30.01R
WAUKESHA       SUNNY     73  61  64 MISG      30.01S
MILWAUKEE/TIMM SUNNY     73  64  73 S5        30.01S
RACINE         SUNNY     76  65  68 SE9       30.03R
BURLINGTON     SUNNY     66  65  99 CALM      29.99F
KENOSHA        SUNNY     76  67  73 SE7       30.01S
FOND DU LAC    SUNNY     74  66  76 S5        30.00F
SHEBOYGAN      SUNNY     71  66  84 SE3       30.00F
WEST BEND      SUNNY     70  63  78 CALM      30.01F
JUNEAU           N/A     71  65  80 SE7       30.01S
$$

LSZ147-162-281400-
LAKE SUPERIOR

STATION/POSITION TIME  TEMP    WIND        PRES    WAVE
                       AIR SEA DIR/SP/G            HT/PER
                 (UTC) (F)     (DEG/KT/KT) (MB)    (FT/S)
W MID LAKE BUOY  1250   65 61  140/ 12/ 12 1011.9F   1
DEVILS ISLAND    1300   72     150/ 10/ 14 1011.2F
PORT WING        1240   74     150/  6/ 13 1010.8F
SAXON HARBOR     1300   74                 1012.2
$$

LMZ867-665-643>646-281400-
LAKE MICHIGAN

STATION/POSITION TIME  TEMP    WIND        PRES    WAVE
                       AIR SEA DIR/SP/G            HT/PER
                 (UTC) (F)     (DEG/KT/KT) (MB)    (FT/S)
CHAMBERS ISLAND  1200   75      CALM  /  1 1015.9S
S GREEN BAY BUOY 1300   76 75  160/ 10/ 12 1017.1
N MID LAKE BUOY  1250   70 69  210/  2/  2 1016.3R   0
NORTHPORT PIER   1200   73     190/  2/  5 1016.3R
SISTER BAY       1114   71     170/  7/ 10   N/A
ALGOMA LAKESHORE 1242             CALM       N/A
KEWAUNEE LAKESHO 1200   65     300/  3/  5 1015.8R
SHEBOYGAN LAKESH 1300   71     140/  7/  7 1015.9F
PORT WASHINGTON  1200   78      CALM  /  2 1016.6
ATWATER BUOY     1300   72     170/  4/  6 1017.4R
MILWAUKEE LAKESH 1200   71     180/  3/  4   N/A
KENOSHA   LAKESH 1300   74     150/  6/  6 1015.9S
$$

TC  - TEMPERATURE IN CELSIUS
VSB - VISIBILITY IN STATUTE MILES
WCI - WIND CHILL INDEX
HX  - HEAT INDEX




USA.gov is the U.S. government's official web portal to all federal, state and local government web resources and services.